DECAYED

RESURS P1 DEB, 60215 (Decayed)

Orbit data source: Space-Track

RESURS P1 DEB, 60215 was space debris in LEO originally from a Commonwealth of Independent States-origin launch on Tue, 25 Jun 2013 UTC launched from the Tyuratam Missile And Space Complex (TTMTR). Debris objects in space refer to the collection of defunct objects orbiting the Earth. Examples of debris include non-operational satellites, rocket bodies, and fragments generated from explosions, collisions, or faulty payload assembly.

Not visible in the next 10 days
RESURS P1 DEB details
Identifier
60215, 2013-030D
Orbit
Decayed
Last TLE update5 months ago
Origin
Flag of CISTSSKBP? (CIS)
ManufacturerTSSKBP?
MissionDecayed spacecraft
Bus & MotorUnknown
MassUnknown
Launch date (UTC)
2013-06-25 (11 years ago)
Launch vehicleUnknown
Launch site
Tyuratam Missile And Space Complex (TTMTR)
Object type
Payload
Rocket body
Debris
Shape & HBRUnknown
Radar Cross SectionSmall (<0.1 m²)

Expand to show TLE details & history

TLE from 5 months ago
0 RESURS P1 DEB
1 60215U 13030D   24201.02269827  .22006651  22682-5  23266-2 0  9994
2 60215  96.9439 251.2101 0017045 281.4061  78.5323 16.37163983  3498
Epoch: 2024-07-19T00:32Z
Definitive object data (Epoch: 2024-07-19T00:32:41.13Z)
Latitude-0.00007°
Longitude-54.26574°
Altitude174.416 km
Speed7.803 km/s
True Right ascension16h 44m 50s
True Declination0° 00' 00"
Sunlit
Object was in full shadow at TLE epoch
Visualization observer readout
Observer readout values are unavailable because the object's trajectory could not be propagated. This is usually caused when the trajectory data is faulty or the object's orbit has decayed.
Visualization observer readout
Observer readout values are unavailable because the object's trajectory could not be propagated. This is usually caused when the trajectory data is faulty or the object's orbit has decayed.
Orbital elements
Apogee altitude181.311 km
Perigee altitude158.987 km
Semi-major axis6,548.286 km
Eccentricity0.0017045
Inclination96.9439°
RAAN251.2101°
Arg. of periapsis281.4061°
True anomaly78.7238°
Mean anomaly78.5323°
Eccentric anomaly78.62804°
Mean motion4.09592 °/min
BSTAR0.0023266
Orbital period87.89 mins
Loading maneuver chart data...

RESURS P1 DEB Visibility forecast

Observer location: undefined°, undefined

This satellite is decayed
Span
Click to sort rows by Start time (UTC) header in descending order
Start Az.
Max El. time (UTC)
Max El. Az.
Max El.
End time (UTC)
End Az.
|